Theta_e
319 318 314 308 293 291 287 292 299 300 300 303 308 307 304 310 313 307 335 338 341 342 346 348 348 350 352 353 353 352 353 354 354 354 353 353 353 353 353 353 353 354 353 353 352 351 351 351 350
312 315 309 302 288 283 287 298 298 301 306 309 310 308 306 312 322 328 333 340 342 341 344 345 347 349 350 351 352 353 354 354 354 353 353 353 353 352 351 352 352 353 352 351 351 351 350 348 348
313 314 300 294 287 285 288 298 301 304 308 307 304 308 308 312 324 325 339 343 341 341 344 345 346 347 349 350 351 352 352 353 352 352 353 353 352 353 351 350 348 347 348 347 347 349 348 346 344
306 306 302 290 287 291 295 299 302 302 306 307 304 303 314 320 325 329 340 343 340 342 343 342 343 346 348 350 350 350 351 350 350 350 352 352 352 350 350 346 346 345 343 343 343 343 344 341 340
303 300 291 287 289 294 298 301 302 301 302 305 305 302 312 323 329 332 334 340 342 341 341 342 342 344 347 349 349 349 350 349 349 349 350 350 351 350 347 345 345 342 339 342 342 341 341 339 340
297 297 287 288 292 296 299 302 302 303 304 306 304 305 310 323 327 329 334 340 344 340 340 341 344 344 345 347 346 346 347 348 348 348 348 349 348 346 346 344 343 337 339 341 340 336 338 340 339
297 292 290 290 292 295 299 303 302 304 303 304 306 303 309 320 329 331 336 343 344 342 339 339 341 343 343 343 343 342 344 344 344 345 345 346 344 343 343 343 343 341 339 338 340 337 338 339 338
303 298 295 296 293 294 302 305 306 305 304 309 307 302 303 317 331 334 339 341 342 340 339 337 337 339 338 338 341 341 342 342 342 343 342 341 342 342 342 342 342 339 338 338 341 339 337 336 335
302 296 294 295 296 298 303 302 308 307 304 307 306 307 320 329 333 336 337 338 339 342 340 339 338 338 338 338 340 341 342 341 340 341 340 338 340 340 340 340 340 339 339 340 339 337 336 334 334
297 292 295 300 301 300 304 305 307 302 302 301 303 316 321 326 329 332 334 335 336 337 339 341 339 339 340 342 337 336 339 336 336 338 337 338 337 338 339 338 338 339 338 337 337 336 334 333 330
296 294 299 301 304 306 304 304 306 301 298 302 303 312 317 318 325 326 333 337 339 340 340 340 340 340 341 341 337 338 337 335 335 336 337 337 336 335 335 336 336 336 335 333 333 332 330 329 329
290 297 301 302 304 303 302 306 303 303 303 307 306 309 314 314 317 323 325 335 337 340 340 339 339 339 339 342 340 339 338 336 335 335 337 334 334 333 332 334 334 332 332 330 330 329 327 327 328
294 295 298 301 304 304 305 303 304 304 307 306 307 307 311 312 312 317 322 328 336 337 340 339 339 339 340 341 341 339 336 337 336 336 337 336 334 333 332 331 334 332 332 330 329 328 328 326 327
298 298 297 299 301 304 303 303 304 305 307 305 306 303 303 310 309 308 311 315 328 337 339 339 339 339 339 338 337 336 338 336 335 335 335 335 333 334 333 332 333 333 331 330 330 329 327 326 326
296 292 296 298 298 298 303 299 300 306 306 304 303 303 304 304 306 305 306 307 312 332 339 338 338 338 339 337 336 334 335 335 333 333 338 334 333 333 332 331 330 331 330 329 329 328 327 325 327
291 291 286 295 298 299 299 293 302 305 304 303 303 302 305 305 306 304 305 306 307 316 336 338 340 338 337 336 336 334 333 333 334 333 333 334 333 332 331 330 330 331 329 330 328 329 326 324 325
287 283 285 290 298 297 296 294 301 305 304 303 304 304 303 304 306 307 305 306 307 310 337 337 338 336 336 335 336 333 332 332 335 335 334 334 333 332 330 330 331 330 328 329 328 326 327 323 324
281 284 286 287 293 296 295 295 300 302 304 304 304 304 305 305 307 309 309 307 307 307 337 338 337 335 335 336 334 333 332 330 330 333 334 334 334 333 330 328 328 327 328 327 328 325 325 324 323
285 286 286 289 294 296 296 297 297 302 304 302 303 304 305 306 308 310 307 306 306 307 335 337 335 334 333 333 330 331 329 328 327 329 332 333 333 332 331 329 327 326 326 326 326 325 322 321 323
285 284 284 290 296 296 293 293 297 299 300 303 304 302 302 304 306 309 308 306 307 310 329 336 335 333 333 333 333 330 332 330 331 328 328 330 331 331 330 328 327 326 327 326 326 325 323 323 324
286 283 284 284 294 297 293 290 293 300 302 305 306 306 305 305 306 308 310 310 311 312 314 333 336 333 333 332 332 328 328 329 328 329 328 327 328 329 328 326 326 327 328 327 327 326 324 320 323
282 287 287 286 289 285 294 282 291 296 298 303 304 303 305 308 310 311 311 311 312 314 317 316 334 335 333 332 330 327 326 325 327 328 328 326 328 326 328 326 325 327 327 326 326 326 324 323 320
287 289 288 288 287 287 288 285 288 298 296 299 302 307 308 309 308 307 308 310 311 312 314 316 318 326 334 331 330 328 326 326 326 327 328 325 324 326 326 328 326 325 325 325 325 325 324 323 321
293 293 292 291 288 278 286 286 287 292 296 299 305 306 305 305 305 305 306 306 305 307 309 311 313 317 328 331 330 328 326 326 324 325 323 322 323 322 324 324 324 325 324 324 324 325 324 322 322
292 287 277 279 277 276 288 285 289 296 301 303 303 303 304 302 302 301 300 300 300 301 304 306 307 310 313 330 329 329 328 327 325 324 323 322 322 321 321 321 321 321 323 323 324 324 323 323 321
288 287 278 275 276 279 288 283 288 300 303 304 303 301 301 299 299 297 297 297 297 299 300 300 302 304 309 326 329 329 329 327 327 325 324 322 321 320 320 320 320 321 323 322 323 323 322 323 322
288 284 290 284 286 278 283 290 297 302 300 299 297 296 295 296 296 294 294 294 295 297 298 298 299 301 307 314 330 328 327 329 325 323 323 322 321 319 320 320 319 321 321 322 322 322 322 322 322
289 293 280 283 278 277 284 287 288 292 293 294 293 293 292 293 293 293 292 293 295 295 296 297 299 304 311 325 324 325 325 326 325 325 323 321 320 320 320 320 319 320 320 321 320 320 322 321 321
287 287 289 289 286 279 281 283 293 294 294 292 292 292 291 291 292 292 292 293 294 294 294 294 297 300 311 320 320 320 322 324 324 324 322 320 320 320 320 319 318 318 318 318 319 318 319 319 319
293 289 290 283 284 286 285 283 296 294 293 292 291 292 292 292 291 291 291 292 292 292 293 292 294 296 300 308 320 320 321 323 323 323 323 321 320 321 320 319 318 317 317 317 317 317 318 317 317
Wind_Speed
4 4 2 3 4 3 5 11 16 19 7 3 5 8 4 4 4 5 4 15 18 14 12 11 16 16 14 12 11 11 11 11 11 10 10 11 11 11 11 12 12 12 14 15 14 15 15 16 15
3 4 1 1 4 2 7 18 20 15 5 2 7 6 8 3 6 13 7 13 16 14 10 10 15 17 14 12 11 11 11 12 12 11 11 10 11 11 11 12 11 11 12 13 13 14 14 14 13
5 3 3 5 4 8 7 12 14 12 4 3 3 4 4 6 6 9 16 18 16 12 11 11 14 16 15 13 12 11 11 11 11 10 10 10 10 12 11 12 10 10 10 8 8 12 13 12 10
2 3 4 3 11 10 18 19 16 12 5 5 2 3 5 9 7 11 18 20 15 13 12 12 13 14 14 13 12 11 11 11 11 11 10 10 11 11 13 10 17 21 21 20 13 7 9 9 8
2 3 3 5 12 14 18 21 18 11 10 6 6 3 6 2 20 21 19 17 17 11 10 11 12 13 13 13 12 10 11 11 10 11 11 11 12 12 11 19 20 21 19 22 16 10 7 5 5
2 3 2 13 17 14 15 17 18 13 9 4 5 4 5 8 18 13 15 15 15 14 10 9 12 12 13 12 12 11 11 10 9 9 10 10 10 12 16 18 20 18 15 22 16 16 10 9 9
6 2 8 12 12 13 16 14 10 20 11 6 7 6 4 10 16 13 15 16 15 14 11 7 7 10 12 12 11 11 10 10 9 7 9 10 11 12 13 20 19 19 18 18 19 19 15 8 11
4 5 16 18 14 21 18 22 14 12 11 2 8 2 4 3 12 13 14 13 13 12 11 8 7 7 7 6 11 11 10 10 9 7 8 10 10 11 12 20 19 17 17 18 16 14 11 9 8
5 10 20 31 17 16 10 13 19 6 4 2 1 5 8 12 14 14 13 9 8 10 10 9 8 7 8 7 7 10 11 10 10 8 8 9 6 8 11 14 21 19 17 18 16 14 13 11 10
7 8 40 6 14 17 19 20 23 4 5 4 1 8 7 10 11 14 12 11 7 8 8 10 8 9 9 7 7 7 6 4 5 6 7 5 7 7 8 11 18 18 15 16 14 12 10 7 1
10 25 24 19 17 20 25 25 18 9 7 7 11 11 11 8 8 10 12 15 14 11 7 8 8 8 10 8 6 4 3 3 4 7 7 6 6 7 5 5 6 7 11 6 7 6 3 4 3
15 31 22 25 21 25 26 21 15 9 12 10 12 14 11 11 11 10 10 15 14 15 14 11 8 7 7 7 7 7 6 5 4 5 8 6 5 7 7 6 7 7 5 6 6 4 4 5 5
23 25 23 26 21 27 27 30 24 23 12 9 8 8 11 15 13 10 10 11 17 17 17 18 14 9 8 10 7 7 6 6 6 5 6 7 7 8 7 6 6 6 7 7 6 6 6 5 5
11 20 24 23 22 26 26 28 18 28 8 10 6 6 8 13 11 9 9 11 15 18 18 17 17 14 10 7 9 7 7 7 5 6 6 7 7 7 8 7 7 7 8 6 7 8 6 4 4
19 23 21 22 27 27 19 25 30 20 9 9 9 8 7 11 11 11 12 10 10 17 19 18 18 15 12 10 8 7 7 6 5 5 9 6 7 9 9 8 7 7 6 7 6 6 6 4 4
20 20 20 24 22 22 17 26 28 11 12 16 10 8 9 10 9 10 11 10 10 10 19 18 15 16 13 9 8 6 6 5 5 5 5 7 7 8 8 7 8 8 6 8 7 8 8 7 6
12 19 22 24 20 15 16 25 18 12 12 14 15 12 10 11 11 10 10 11 11 10 19 19 17 18 16 9 9 8 7 5 7 7 7 9 8 7 7 7 6 7 7 7 7 6 8 7 7
18 14 20 22 16 18 23 26 21 6 15 22 16 15 16 16 18 14 16 11 12 9 21 19 14 15 14 10 7 7 6 4 5 7 8 11 9 10 8 5 6 6 7 6 7 10 6 7 8
19 21 19 15 24 5 5 10 7 14 21 16 16 18 20 19 16 16 11 12 10 7 20 19 17 14 11 10 7 9 8 6 3 4 9 11 10 11 10 7 7 6 8 9 11 7 10 6 6
23 23 23 18 15 4 9 12 12 12 11 15 21 12 10 12 8 15 8 8 5 5 16 18 17 17 13 11 8 5 8 3 5 3 5 8 10 11 10 9 9 9 8 10 11 12 7 4 8
24 21 18 20 3 5 4 8 7 13 16 18 19 13 8 8 8 8 9 9 8 8 8 10 19 20 16 14 9 5 5 4 4 7 5 5 8 10 9 10 9 9 9 10 12 13 15 10 9
19 19 22 23 5 3 2 5 8 8 11 15 14 8 8 10 13 14 14 14 15 14 13 9 10 13 11 15 13 17 12 10 8 8 7 5 8 8 11 10 10 10 8 10 10 10 11 9 12
22 17 22 21 6 7 6 2 8 6 10 9 12 17 15 18 17 17 16 14 13 14 12 13 9 6 14 16 15 13 11 9 5 8 10 8 5 9 10 11 10 10 9 9 12 13 12 11 12
22 2 6 5 2 3 11 12 5 2 16 7 23 22 19 17 16 17 17 18 18 17 16 14 15 12 7 16 17 17 15 13 9 10 7 6 6 5 7 6 7 8 10 10 10 11 15 12 11
12 9 2 3 4 5 13 12 8 8 16 18 22 19 19 17 18 19 21 19 19 19 19 17 16 17 13 13 16 16 16 14 16 13 9 9 7 4 8 8 8 8 8 9 9 12 10 12 12
5 8 6 6 4 4 9 6 3 13 15 22 21 19 19 18 16 18 17 16 17 19 18 20 19 18 13 12 15 14 13 9 10 12 9 9 8 7 9 8 9 9 10 10 9 9 9 12 12
6 7 1 4 2 3 3 2 2 17 20 17 20 19 20 19 17 17 17 17 18 18 19 20 22 20 15 16 12 10 8 13 9 12 12 10 9 8 10 9 9 8 8 9 9 7 12 9 10
7 2 4 3 1 4 5 6 3 14 14 12 19 19 17 17 20 19 17 16 15 15 16 18 19 22 13 10 7 6 6 6 10 11 12 12 9 10 10 9 9 8 7 8 8 5 10 14 11
4 4 5 3 3 5 4 4 4 7 14 15 18 18 18 18 17 16 15 15 15 13 14 16 17 18 14 2 3 2 2 6 11 11 11 11 11 11 11 10 9 9 9 7 8 7 8 12 11
7 5 1 3 3 2 2 5 16 16 17 18 19 18 16 17 16 15 15 15 15 14 15 17 17 17 16 15 4 5 1 5 11 12 12 12 11 10 10 10 10 10 8 9 7 8 6 9 11
Wind_Direction
179 206 179 15 43 98 248 252 240 275 276 306 87 79 124 118 101 174 123 116 119 127 138 142 132 126 129 133 141 149 148 149 145 145 142 138 133 126 118 115 119 123 123 122 120 113 110 114 114
219 232 35 274 126 272 269 248 255 276 200 97 61 50 49 63 89 128 121 131 122 133 143 145 135 127 132 136 143 152 155 154 152 155 154 153 147 140 135 123 117 113 127 131 122 114 115 114 108
323 282 96 151 197 213 243 260 274 288 285 101 89 83 97 110 100 145 132 130 125 135 139 141 135 129 133 140 142 151 157 155 159 162 165 161 154 146 149 139 139 124 87 94 111 118 113 105 112
225 355 320 174 239 252 237 265 275 305 268 119 106 107 74 147 129 137 137 130 135 140 135 140 135 135 137 140 141 151 157 163 167 167 169 166 157 164 153 149 105 96 91 71 50 67 113 124 130
264 285 218 225 239 249 257 265 271 281 290 203 138 243 125 48 133 138 135 134 121 117 131 140 139 142 138 137 138 148 153 166 172 173 173 175 163 163 157 124 122 117 117 106 111 86 78 109 159
279 180 245 229 241 253 259 259 272 261 264 171 110 113 169 127 129 138 126 119 122 125 131 141 143 143 139 139 139 143 143 148 170 181 177 173 164 163 140 130 135 141 144 130 135 131 162 193 165
213 264 244 252 252 263 257 265 258 267 243 219 160 143 164 140 147 139 128 121 126 126 131 137 147 147 142 142 148 143 142 137 142 157 175 172 167 161 157 141 141 147 143 143 156 170 183 197 152
233 259 259 250 241 252 260 267 267 295 214 176 131 199 177 157 138 107 111 112 118 126 134 147 152 148 141 146 153 148 146 142 144 155 167 164 159 152 152 151 155 158 159 157 174 164 164 156 121
291 256 249 241 238 248 280 282 281 268 127 122 268 141 154 112 125 110 114 106 116 133 144 150 159 166 154 154 166 153 150 151 146 151 154 140 129 143 141 155 157 161 165 159 160 167 172 165 167
209 248 246 313 250 257 265 266 276 239 220 209 180 68 118 124 133 134 144 146 151 155 157 160 171 174 161 160 163 148 153 151 154 147 144 143 135 140 136 148 153 159 156 152 157 163 159 157 193
236 241 254 255 270 256 270 272 280 286 244 195 200 160 146 138 150 153 165 165 172 163 160 170 171 178 163 156 163 155 155 162 168 152 147 146 136 122 128 135 132 142 145 158 153 159 168 173 160
244 245 250 256 257 270 270 289 281 288 247 207 189 162 160 161 173 183 178 178 166 170 173 172 177 182 168 155 164 165 162 164 164 163 151 142 136 135 141 152 152 150 158 160 164 171 173 174 179
236 258 260 256 254 246 262 262 267 274 273 259 191 170 180 176 179 183 190 178 181 177 175 177 177 182 181 163 168 166 166 169 166 153 156 147 145 152 150 151 157 164 165 170 172 175 177 173 180
256 256 257 260 259 247 252 259 259 261 264 259 255 247 182 175 190 193 188 208 184 185 182 177 179 182 175 161 174 167 162 168 159 145 158 153 143 152 161 159 170 170 173 174 176 177 174 182 173
262 265 270 253 252 259 256 265 247 252 262 266 243 244 258 188 196 199 203 194 210 186 182 175 175 179 177 164 168 155 155 153 148 155 148 160 156 159 160 169 170 175 175 177 172 167 158 173 180
276 269 263 255 255 254 256 257 254 254 242 257 261 246 231 254 213 200 215 203 205 175 174 176 176 178 177 163 153 155 155 149 155 162 154 160 156 157 159 168 174 178 173 180 176 178 172 172 174
250 248 250 264 239 250 231 255 259 239 241 239 239 238 229 228 242 246 217 214 210 174 177 175 173 178 179 166 155 154 162 162 170 170 173 172 167 162 160 167 179 167 162 164 167 178 179 170 173
254 254 247 256 263 233 246 250 251 238 225 247 251 243 232 219 220 226 227 206 207 193 175 173 171 173 171 171 142 156 166 177 161 176 179 173 175 176 171 172 173 162 159 166 174 170 173 174 180
260 271 246 251 249 251 346 288 291 216 242 252 235 235 235 217 212 219 209 207 198 179 170 171 161 169 162 175 165 161 168 179 159 160 169 174 175 176 181 182 176 177 179 183 176 164 167 162 168
243 254 266 276 264 61 6 311 322 305 276 267 268 235 230 191 215 214 179 181 174 167 168 168 167 164 171 179 183 156 144 153 174 165 183 179 173 177 182 176 183 182 177 176 177 171 168 163 173
248 241 254 253 98 80 11 291 249 271 275 266 266 229 201 177 166 71 71 66 58 54 95 180 171 173 176 176 161 116 100 107 162 206 218 186 175 180 176 169 174 178 184 187 184 179 179 174 180
240 245 244 252 176 223 120 304 290 239 262 240 265 247 187 88 70 62 50 40 36 28 19 33 186 175 173 167 166 167 175 180 200 199 206 200 196 178 173 166 176 184 188 190 188 185 182 175 178
267 242 254 236 125 136 180 285 268 253 278 250 237 90 63 58 51 46 40 35 25 20 18 1 30 245 178 173 175 172 176 186 157 180 195 188 173 158 159 166 178 185 194 196 192 186 182 175 180
276 118 49 41 71 223 178 186 265 232 239 209 75 54 59 49 41 36 28 24 12 3 1 0 351 346 254 183 177 180 179 175 167 181 185 166 155 154 151 162 181 193 195 200 201 190 181 174 174
226 135 64 171 193 221 173 180 210 334 101 78 102 88 67 48 40 30 23 14 2 357 349 343 344 322 344 217 182 182 183 176 178 175 178 162 164 167 176 174 196 209 197 195 194 181 176 170 172
166 148 168 186 179 159 169 228 317 138 78 80 65 72 66 54 41 33 20 9 356 347 345 335 328 316 311 267 193 183 184 180 178 177 164 168 177 169 169 178 199 200 198 190 189 188 179 172 172
204 192 225 70 198 63 157 65 92 93 49 64 78 60 49 40 36 28 16 4 352 348 341 329 318 305 269 259 207 183 168 187 165 161 156 160 162 162 166 179 181 183 172 173 175 191 182 172 163
150 114 63 37 358 206 168 127 101 69 73 31 62 57 50 41 32 22 12 360 352 346 333 326 316 304 229 200 200 160 178 187 169 149 147 153 150 153 169 178 170 172 154 165 152 161 173 182 178
55 31 40 62 190 338 180 106 49 80 107 73 59 54 49 41 29 16 7 360 352 346 342 337 337 352 4 317 221 152 193 176 171 142 145 150 151 161 176 177 172 180 165 142 163 150 155 153 154
326 153 6 132 193 190 359 71 95 84 73 61 53 54 49 43 30 17 7 358 360 353 355 356 353 1 357 336 276 207 154 167 156 145 146 149 156 164 178 172 172 182 170 152 162 156 170 163 163